Regional Weather Roundup
Issued by NWS

Home | Current Version | Previous Version | Graphics & Text | Print | Product List | Glossary On
Versions: 1 2 3 4 5 6 7 8 9 10 11 12 13 14 15 16 17 18 19 20 21 22 23 24 25 26 27 28 29 30 31 32 33 34 35 36 37 38 39 40 41 42 43 44 45 46 47 48 49 50
000
ASUS45 KBOI 061910
RWRID
WEATHER ROUNDUP FOR IDAHO
NATIONAL WEATHER SERVICE BOISE ID
1200 PM MST FRI MAR 06 2015

NOTE: "FAIR" INDICATES FEW OR NO CLOUDS BELOW 12000 FEET
WITH NO SIGNIFICANT WEATHER AND/OR OBSTRUCTIONS TO VISIBILITY

IDZ012-014-062000-
SOUTHWEST IDAHO


CITY           SKY/WX    TMP DP  RH WIND       PRES   REMARKS
BOISE          SUNNY     51  23  33 SW3       30.45F
CALDWELL       SUNNY     48  23  37 CALM      30.47F
MOUNTAIN HOME  SUNNY     48  21  34 CALM      30.45F
$$

IDZ016-017-062000-
SOUTHCENTRAL IDAHO


CITY           SKY/WX    TMP DP  RH WIND       PRES   REMARKS
BURLEY         SUNNY     52  18  26 SW8       30.42F
JEROME         SUNNY     48  17  29 VRB6      30.44F
TWIN FALLS     SUNNY     53  18  25 W6        30.44F
$$

IDZ019>023-062000-
SOUTHEAST IDAHO


CITY           SKY/WX    TMP DP  RH WIND       PRES   REMARKS
IDAHO FALLS    SUNNY     46  19  34 S10       30.44F
POCATELLO      SUNNY     47  25  42 W8        30.45F
REXBURG        SUNNY     43  21  41 SW12      30.44S
$$

IDZ006-010-011-018-031-032-062000-
CENTRAL IDAHO MOUNTAINS


CITY           SKY/WX    TMP DP  RH WIND       PRES   REMARKS
MCCALL         SUNNY     43  18  36 VRB3      30.42F
HAILEY         MOSUNNY   48  19  32 SE10      30.43F
STANLEY          N/A     35  13  40 CALM      30.47F
SALMON         SUNNY     41  16  36 N3        30.44F
CHALLIS        SUNNY     47  12  24 NE3       30.43F
$$

IDZ002-004-006-007-026-062000-
NORTHERN IDAHO


CITY           SKY/WX    TMP DP  RH WIND       PRES   REMARKS
LEWISTON       SUNNY     45  30  55 VRB3      30.43F
LOWELL           N/A     46  25  43 N3        30.46F
COEUR D`ALENE  SUNNY     52  28  40 S10       30.37F
MULLAN PASS    PTSUNNY   40  18  41 VRB6      30.35S
$$


USA.gov is the U.S. government's official web portal to all federal, state and local government web resources and services.